Date,TemperatureHighF,TemperatureAvgF,TemperatureLowF,DewpointHighF,DewpointAvgF,DewpointLowF,HumidityHigh,HumidityAvg,HumidityLow,PressureMaxIn,PressureMinIn,WindSpeedMaxMPH,WindSpeedAvgMPH,GustSpeedMaxMPH,PrecipitationSumIn
2013-1-1,31.5,25.3,10.7,31.0,22.2,8.4,98,88,73,30.20,30.07,8,3,14,0.00
2013-1-2,24.6,13.2,7.1,16.8,9.8,5.0,95,87,61,30.31,30.17,6,1,10,0.00
2013-1-3,31.3,23.8,6.4,23.3,17.9,4.3,93,79,58,30.34,30.25,7,3,11,0.00
2013-1-4,30.9,26.1,21.5,22.8,19.6,16.6,84,76,66,30.35,30.27,9,5,20,0.00
2013-1-5,34.2,22.3,11.8,28.6,18.6,10.2,94,86,79,30.44,30.21,3,1,20,0.04
2013-1-6,36.7,32.3,25.9,33.0,28.6,23.5,96,86,80,30.34,30.04,11,4,14,0.10
2013-1-7,35.5,27.9,19.5,27.9,24.2,18.3,96,86,67,30.53,30.33,5,2,12,0.02
2013-1-8,44.4,28.2,16.7,32.8,24.6,15.5,98,88,62,30.42,30.30,4,1,9,0.06
2013-1-9,45.9,37.2,27.0,39.5,32.9,25.6,97,85,71,30.55,30.25,7,2,13,0.01
2013-1-10,38.6,33.0,24.0,31.5,28.9,23.3,99,86,73,30.63,30.25,5,1,13,0.00
2013-1-11,57.8,46.4,37.8,53.0,43.7,30.8,100,91,74,30.25,29.93,5,2,13,0.64
2013-1-12,62.0,54.0,41.2,61.0,53.0,41.2,100,97,85,30.07,29.87,6,2,13,0.04
2013-1-13,63.1,57.3,38.2,61.1,55.2,37.2,100,93,83,30.04,29.77,15,5,22,0.32
2013-1-14,38.0,28.8,24.3,37.2,25.2,21.6,97,86,79,30.47,30.05,11,4,15,0.00
2013-1-15,31.2,27.1,22.3,24.5,22.5,20.3,93,83,71,30.46,30.15,4,2,8,0.00
2013-1-16,34.0,31.0,29.4,28.8,26.4,24.1,93,83,75,30.15,29.98,7,2,12,0.00
2013-1-17,35.1,31.9,23.2,29.7,27.1,17.1,92,82,72,30.35,30.09,11,4,16,0.00
2013-1-18,34.6,24.9,12.7,24.5,17.1,9.6,94,73,55,30.57,30.26,13,4,21,0.00
2013-1-19,51.2,42.4,34.7,30.6,26.9,23.5,68,55,39,30.26,29.85,8,5,19,0.00
2013-1-20,43.0,29.5,22.1,34.8,19.5,13.7,75,66,54,30.23,29.83,16,8,23,0.00
2013-1-21,21.9,19.8,18.9,17.1,15.6,14.5,88,84,77,30.20,30.10,4,2,19,0.00
2013-1-23,18.3,16.4,13.5,12.7,7.4,2.5,89,69,55,30.38,30.17,5,3,0,0.00
2013-1-24,22.3,15.6,10.1,13.8,9.7,5.4,91,78,52,30.63,30.16,9,3,13,0.00
2013-1-25,21.4,17.1,14.0,18.2,12.0,6.7,93,80,69,30.58,30.10,5,2,11,0.00
2013-1-26,28.0,22.6,13.6,21.6,17.6,9.7,94,82,61,30.52,30.17,10,4,16,0.00
2013-1-27,32.1,21.6,6.7,27.6,16.2,4.4,95,81,65,30.59,30.33,6,2,16,0.00
2013-1-28,47.8,40.9,30.5,47.7,40.4,27.6,100,98,89,30.31,30.05,6,3,15,0.38
2013-1-29,63.9,54.4,46.9,56.9,52.1,46.9,100,92,78,30.10,29.69,6,2,15,0.04
2013-1-30,62.4,54.1,32.4,56.9,50.5,29.9,99,88,77,29.68,29.21,16,6,22,0.55
2013-1-31,32.8,24.6,16.7,29.6,19.1,11.8,93,80,62,29.96,29.39,18,10,32,0.00